Weather History for Tampa Executive, FL

Change the Weather History Date:

Wednesday, October 16, 2013

  Actual Average (KTPA) Record (KTPA)
Temperature  
Mean Temperature 78 °F 76 °F  
Max Temperature 86 °F 84 °F 92 °F (1959)
Min Temperature 69 °F 68 °F 51 °F (1977)
Degree Days  
Heating Degree Days 0 0  
Month to date heating degree days 0  
Since 1 July heating degree days 0  
Cooling Degree Days 12 11  
Month to date cooling degree days 208  
Year to date cooling degree days 3224  
Growing Degree Days 28 (Base 50)    
Moisture  
Dew Point 66 °F    
Average Humidity 72    
Maximum Humidity 94    
Minimum Humidity 43    
Precipitation  
Precipitation 0.00 in 0.07 in 2.39 in (1917)
Month to date precipitation 1.42  
Year to date precipitation 41.44  
Sea Level Pressure  
Sea Level Pressure 29.96 in    
Wind  
Wind Speed 0 mph (NNW)    
Max Wind Speed 5 mph    
Max Gust Speed -    
Visibility 8 miles    
Events      
T = Trace of Precipitation, MM = Missing Value Source: NWS Daily Summary

Daily Weather History Graph

Daily Weather History Graph

Search for Another Location

Airport:

Trip Planner

Search our weather history database for the weather conditions in past years. The results will help you decide how hot, cold, wet, or windy it might be!

Date:

Astronomy

Oct. 16, 2013 Rise Set
Actual Time 7:30 AM EDT 6:58 PM EDT
Civil Twilight 7:06 AM EDT 7:22 PM EDT
Nautical Twilight 6:39 AM EDT 7:49 PM EDT
Astronomical Twilight 6:12 AM EDT 8:16 PM EDT
Moon 5:29 PM EDT (10/16) 5:08 AM EDT (10/16)
Length of Visible Light 12h 15m
Length of Day
11h 28m
Waxing Gibbous, 94% of the Moon is Illuminated
Oct 16
Waxing Gibbous
Oct 18
Full
Oct 26
Last Quarter
Nov 3
New
Nov 10
First Quarter

Hourly Weather History & Observations

Time (EDT) Temp. Heat Index Dew Point Humidity Pressure Visibility Wind Dir Wind Speed Gust Speed Precip Events Conditions
12:15 AM 71.6 °F - 68.0 °F 88% 29.98 in 7.0 mi Calm Calm - N/A   Overcast
12:35 AM 71.6 °F - 68.0 °F 88% 29.98 in 7.0 mi Calm Calm - N/A   Overcast
12:55 AM 71.6 °F - 68.0 °F 88% 29.98 in 7.0 mi Calm Calm - N/A   Overcast
1:15 AM 71.6 °F - 68.0 °F 88% 29.97 in 10.0 mi Calm Calm - N/A   Overcast
1:35 AM 71.6 °F - 68.0 °F 88% 29.97 in 7.0 mi Calm Calm - N/A   Overcast
1:55 AM 71.6 °F - 68.0 °F 88% 29.96 in 7.0 mi Calm Calm - N/A   Overcast
2:15 AM 71.6 °F - 68.0 °F 88% 29.97 in 7.0 mi Calm Calm - N/A   Mostly Cloudy
2:35 AM 71.6 °F - 68.0 °F 88% 29.97 in 5.0 mi Calm Calm - N/A   Mostly Cloudy
2:55 AM 71.6 °F - 68.0 °F 88% 29.96 in 5.0 mi Calm Calm - N/A   Overcast
3:15 AM 71.6 °F - 68.0 °F 88% 29.96 in 5.0 mi Calm Calm - N/A   Overcast
3:35 AM 71.6 °F - 68.0 °F 88% 29.96 in 5.0 mi Calm Calm - N/A   Overcast
3:55 AM 71.6 °F - 68.0 °F 88% 29.96 in 7.0 mi Calm Calm - N/A   Overcast
4:15 AM 71.6 °F - 68.0 °F 88% 29.96 in 7.0 mi Calm Calm - N/A   Overcast
4:35 AM 71.6 °F - 68.0 °F 88% 29.96 in 7.0 mi Calm Calm - N/A   Overcast
4:55 AM 71.6 °F - 68.0 °F 88% 29.96 in 7.0 mi Calm Calm - N/A   Overcast
5:15 AM 71.6 °F - 68.0 °F 88% 29.95 in 7.0 mi Calm Calm - N/A   Overcast
5:35 AM 71.6 °F - 68.0 °F 88% 29.96 in 5.0 mi Calm Calm - N/A   Mostly Cloudy
5:55 AM 71.6 °F - 68.0 °F 88% 29.96 in 5.0 mi Calm Calm - N/A   Mostly Cloudy
6:15 AM 69.8 °F - 66.2 °F 88% 29.96 in 3.0 mi Calm Calm - N/A   Mostly Cloudy
6:35 AM 69.8 °F - 66.2 °F 88% 29.97 in 3.0 mi Calm Calm - N/A   Overcast
6:55 AM 69.8 °F - 68.0 °F 94% 29.98 in 5.0 mi Calm Calm - N/A   Overcast
7:15 AM 71.6 °F - 68.0 °F 88% 29.98 in 5.0 mi Calm Calm - N/A   Overcast
7:35 AM 71.6 °F - 68.0 °F 88% 29.99 in 4.0 mi Calm Calm - N/A   Overcast
7:55 AM 71.6 °F - 68.0 °F 88% 29.99 in 2.5 mi Calm Calm - N/A   Overcast
8:15 AM 71.6 °F - 68.0 °F 88% 29.99 in 2.5 mi Calm Calm - N/A   Mostly Cloudy
8:35 AM 71.6 °F - 68.0 °F 88% 29.99 in 2.5 mi Calm Calm - N/A   Overcast
8:55 AM 73.4 °F - 68.0 °F 83% 29.99 in 4.0 mi Calm Calm - N/A   Haze
9:15 AM 71.6 °F - 68.0 °F 88% 29.99 in 5.0 mi Calm Calm - N/A   Haze
9:35 AM 75.2 °F - 68.0 °F 78% 30.00 in 7.0 mi ENE 3.5 mph - N/A   Mostly Cloudy
9:55 AM 77.0 °F - 68.0 °F 74% 30.00 in 7.0 mi East 4.6 mph - N/A   Mostly Cloudy
10:15 AM 77.0 °F - 68.0 °F 74% 30.00 in 10.0 mi NE 3.5 mph - N/A   Mostly Cloudy
10:35 AM 77.0 °F - 68.0 °F 74% - 10.0 mi ENE 3.5 mph - N/A   Scattered Clouds
11:15 AM 78.8 °F - 68.0 °F 69% 29.99 in 10.0 mi Calm Calm - N/A   Clear
11:35 AM 80.6 °F 83.2 °F 68.0 °F 65% 29.99 in 10.0 mi Calm Calm - N/A   Clear
11:55 AM 80.6 °F 82.7 °F 66.2 °F 61% 29.99 in 10.0 mi Calm Calm - N/A   Scattered Clouds
12:15 PM 80.6 °F 82.7 °F 66.2 °F 61% 29.99 in 10.0 mi Calm Calm - N/A   Scattered Clouds
12:35 PM 82.4 °F 83.9 °F 64.4 °F 54% 29.98 in 10.0 mi South 3.5 mph - N/A   Scattered Clouds
12:55 PM 82.4 °F 83.4 °F 62.6 °F 51% 29.98 in 10.0 mi Calm Calm - N/A   Clear
1:15 PM 86.0 °F 86.6 °F 62.6 °F 45% 29.97 in 10.0 mi Calm Calm - N/A   Clear
1:35 PM 86.0 °F 86.6 °F 62.6 °F 45% 29.96 in 10.0 mi Calm Calm - N/A   Scattered Clouds
1:55 PM 86.0 °F 86.6 °F 62.6 °F 45% 29.95 in 10.0 mi Calm Calm - N/A   Scattered Clouds
2:15 PM 86.0 °F 86.6 °F 62.6 °F 45% 29.95 in 10.0 mi Calm Calm - N/A   Scattered Clouds
2:35 PM 86.0 °F 86.6 °F 62.6 °F 45% 29.94 in 10.0 mi Calm Calm - N/A   Clear
2:55 PM 86.0 °F 86.1 °F 60.8 °F 43% 29.93 in 10.0 mi Calm Calm - N/A   Clear
3:15 PM 86.0 °F 86.6 °F 62.6 °F 45% 29.93 in 10.0 mi Calm Calm - N/A   Clear
3:35 PM 86.0 °F 86.6 °F 62.6 °F 45% 29.93 in 10.0 mi West 3.5 mph - N/A   Clear
3:55 PM 86.0 °F 86.6 °F 62.6 °F 45% 29.92 in 10.0 mi Calm Calm - N/A   Clear
4:15 PM 84.2 °F 85.0 °F 62.6 °F 48% 29.92 in 10.0 mi WNW 3.5 mph - N/A   Clear
4:35 PM 86.0 °F 86.6 °F 62.6 °F 45% 29.92 in 10.0 mi Calm Calm - N/A   Clear
4:55 PM 86.0 °F 86.1 °F 60.8 °F 43% 29.92 in 10.0 mi Calm Calm - N/A   Clear
5:15 PM 86.0 °F 86.6 °F 62.6 °F 45% 29.91 in 10.0 mi NW 4.6 mph - N/A   Clear
5:35 PM 84.2 °F 85.0 °F 62.6 °F 48% 29.91 in 10.0 mi NW 3.5 mph - N/A   Clear
5:55 PM 84.2 °F 85.0 °F 62.6 °F 48% 29.91 in 10.0 mi Calm Calm - N/A   Scattered Clouds
6:15 PM 82.4 °F 83.9 °F 64.4 °F 54% 29.92 in 10.0 mi NNW 3.5 mph - N/A   Scattered Clouds
6:35 PM 80.6 °F 82.3 °F 64.4 °F 58% 29.93 in 10.0 mi NW 4.6 mph - N/A   Clear
6:55 PM 78.8 °F - 64.4 °F 61% 29.93 in 10.0 mi NW 4.6 mph - N/A   Scattered Clouds
7:15 PM 78.8 °F - 64.4 °F 61% 29.93 in 10.0 mi NW 4.6 mph - N/A   Mostly Cloudy
7:35 PM 77.0 °F - 64.4 °F 65% 29.94 in 10.0 mi Calm Calm - N/A   Scattered Clouds
7:55 PM 75.2 °F - 64.4 °F 69% 29.94 in 10.0 mi Calm Calm - N/A   Clear
8:15 PM 73.4 °F - 64.4 °F 73% 29.95 in 10.0 mi Calm Calm - N/A   Clear
8:35 PM 71.6 °F - 64.4 °F 78% 29.96 in 10.0 mi Calm Calm - N/A   Clear
8:55 PM 71.6 °F - 64.4 °F 78% 29.96 in 10.0 mi Calm Calm - N/A   Clear
9:15 PM 71.6 °F - 64.4 °F 78% 29.97 in 10.0 mi Calm Calm - N/A   Clear
9:35 PM 71.6 °F - 64.4 °F 78% 29.98 in 10.0 mi Calm Calm - N/A   Clear
9:55 PM 71.6 °F - 64.4 °F 78% 29.98 in 10.0 mi Calm Calm - N/A   Clear
10:15 PM 71.6 °F - 64.4 °F 78% 29.98 in 10.0 mi Calm Calm - N/A   Clear
10:35 PM 69.8 °F - 64.4 °F 83% 29.99 in 10.0 mi Calm Calm - N/A   Clear
10:55 PM 69.8 °F - 64.4 °F 83% 29.99 in 10.0 mi Calm Calm - N/A   Clear
11:15 PM 69.8 °F - 64.4 °F 83% 29.99 in 10.0 mi Calm Calm - N/A   Clear
11:35 PM 69.8 °F - 64.4 °F 83% 29.98 in 10.0 mi Calm Calm - N/A   Clear
11:55 PM 69.8 °F - 64.4 °F 83% 29.98 in 10.0 mi Calm Calm - N/A   Clear